User: anonymous
Location: Unspecified
(0.0000°N, 0.0000°E)
Time: 09:17:37
(UTC+00:00)
Language:

HST - Orbit

View from above orbital plane
View from above orbital plane
View from above satellite
View from above satellite

Ground track
Ground track

The orbit data is extracted from the following two-line orbital elements,

1 20580U 90037B   14112.88418042  .00004871  00000-0  32100-3 0  4880
2 20580 028.4713 040.6464 0002794 057.4113 302.6767 15.05232460116376
Epoch (UTC): 22 April 2014 21:13:13
Eccentricity: 0.0002794
inclination: 28.4713°
perigee height: 549 km
apogee height: 553 km
right ascension of ascending node: 40.6464°
argument of perigee: 57.4113°
revolutions per day: 15.05232460
mean anomaly at epoch: 302.6767°
orbit number at epoch: 11637

The dashed part of the orbit path shows where the satellite is in the earth's shadow,  

DLR